User: anonymous   Login
Location: Caltech
(34.1382°N, 118.1253°W)
Time: 06:33:23
(UTC-07:00)
Language:

Lacrosse 5 rocket - Orbit

View from above orbital plane
View from above orbital plane
View from above satellite
View from above satellite

Ground track
Ground track

The orbit data is extracted from the following two-line orbital elements,

1 28647U 05016B   18147.85695090 0.00000150  00000-0  86393-5 0    05
2 28647  56.9971  55.5801 0126144 226.3234 133.6766 15.05399413    02
Epoch (UTC): 27 May 2018 20:34:00
Eccentricity: 0.0126144
inclination: 56.9971°
perigee height: 463 km
apogee height: 637 km
right ascension of ascending node: 55.5801°
argument of perigee: 226.3234°
revolutions per day: 15.05399413
mean anomaly at epoch: 133.6766°
orbit number at epoch: 0

The dashed part of the orbit path shows where the satellite is in the earth's shadow,  

DLR